Time,TemperatureF,DewpointF,PressureIn,WindDirection,WindDirectionDegrees,WindSpeedMPH,WindSpeedGustMPH,Humidity,HourlyPrecipIn,Conditions,Clouds,dailyrainin,SoftwareType,DateUTC
2013-04-10 00:02:00,70.0,62.0,29.90,SE,144,0.0,0.0,75,0.00,,,0.00,,2013-04-10 05:02:00,
2013-04-10 00:13:00,70.0,62.0,29.90,SE,144,0.0,0.0,75,0.00,,,0.00,,2013-04-10 05:13:00,
2013-04-10 00:23:00,69.0,61.0,29.90,SE,131,0.0,10.0,76,0.00,,,0.00,,2013-04-10 05:23:00,
2013-04-10 00:33:00,69.0,61.0,29.89,SSE,164,0.0,7.0,77,0.00,,,0.00,,2013-04-10 05:33:00,
2013-04-10 00:42:00,69.0,61.0,29.89,SSE,164,0.0,7.0,77,0.00,,,0.00,,2013-04-10 05:42:00,
2013-04-10 00:53:00,69.0,61.0,29.88,SSE,166,0.0,9.0,77,0.00,,,0.00,,2013-04-10 05:53:00,
2013-04-10 01:03:00,69.0,62.0,29.89,SSE,164,0.0,0.0,78,0.00,,,0.00,,2013-04-10 06:03:00,
2013-04-10 01:12:00,68.0,61.0,29.88,South,183,0.0,6.0,79,0.00,,,0.00,,2013-04-10 06:12:00,
2013-04-10 01:22:00,68.0,61.0,29.88,South,183,0.0,6.0,79,0.00,,,0.00,,2013-04-10 06:22:00,
2013-04-10 01:32:00,68.0,62.0,29.88,South,169,0.0,0.0,80,0.00,,,0.00,,2013-04-10 06:32:00,
2013-04-10 01:42:00,68.0,62.0,29.88,South,169,0.0,0.0,80,0.00,,,0.00,,2013-04-10 06:42:00,
2013-04-10 01:52:00,68.0,62.0,29.88,South,169,0.0,5.0,80,0.00,,,0.00,,2013-04-10 06:52:00,
2013-04-10 02:02:00,67.0,61.0,29.88,SSE,167,0.0,0.0,81,0.00,,,0.00,,2013-04-10 07:02:00,
2013-04-10 02:12:00,67.0,61.0,29.88,SSE,167,0.0,0.0,81,0.00,,,0.00,,2013-04-10 07:12:00,
2013-04-10 02:22:00,67.0,61.0,29.88,SSE,163,0.0,0.0,81,0.00,,,0.00,,2013-04-10 07:22:00,
2013-04-10 02:32:00,67.0,61.0,29.87,South,169,0.0,3.0,81,0.00,,,0.00,,2013-04-10 07:32:00,
2013-04-10 02:42:00,67.0,61.0,29.87,South,169,0.0,3.0,81,0.00,,,0.00,,2013-04-10 07:42:00,
2013-04-10 02:52:00,67.0,61.0,29.86,SSE,160,0.0,0.0,81,0.00,,,0.00,,2013-04-10 07:52:00,
2013-04-10 03:02:00,67.0,61.0,29.87,SSE,161,0.0,0.0,82,0.00,,,0.00,,2013-04-10 08:02:00,
2013-04-10 03:12:00,67.0,61.0,29.87,SSE,161,0.0,0.0,82,0.00,,,0.00,,2013-04-10 08:12:00,
2013-04-10 03:22:00,67.0,62.0,29.87,South,180,0.0,0.0,83,0.00,,,0.00,,2013-04-10 08:22:00,
2013-04-10 03:32:00,66.0,61.0,29.87,South,180,0.0,0.0,83,0.00,,,0.00,,2013-04-10 08:32:00,
2013-04-10 03:42:00,66.0,61.0,29.87,South,180,0.0,0.0,83,0.00,,,0.00,,2013-04-10 08:42:00,
2013-04-10 03:52:00,66.0,61.0,29.88,South,182,0.0,0.0,84,0.00,,,0.00,,2013-04-10 08:52:00,
2013-04-10 04:02:00,66.0,61.0,29.88,South,184,0.0,0.0,85,0.00,,,0.00,,2013-04-10 09:02:00,
2013-04-10 04:12:00,66.0,61.0,29.88,South,173,0.0,0.0,85,0.00,,,0.00,,2013-04-10 09:12:00,
2013-04-10 04:22:00,66.0,61.0,29.88,South,173,0.0,0.0,85,0.00,,,0.00,,2013-04-10 09:22:00,
2013-04-10 04:32:00,66.0,61.0,29.88,South,180,0.0,0.0,85,0.00,,,0.00,,2013-04-10 09:32:00,
2013-04-10 04:43:00,66.0,61.0,29.88,South,180,0.0,0.0,85,0.00,,,0.00,,2013-04-10 09:43:00,
2013-04-10 04:53:00,65.0,60.0,29.88,South,190,0.0,0.0,85,0.00,,,0.00,,2013-04-10 09:53:00,
2013-04-10 05:03:00,65.0,61.0,29.88,South,190,0.0,0.0,86,0.00,,,0.00,,2013-04-10 10:03:00,
2013-04-10 05:13:00,66.0,62.0,29.88,SSW,204,0.0,0.0,86,0.00,,,0.00,,2013-04-10 10:13:00,
2013-04-10 05:23:00,66.0,62.0,29.88,SSW,204,0.0,0.0,86,0.00,,,0.00,,2013-04-10 10:23:00,
2013-04-10 05:33:00,66.0,62.0,29.89,SSW,197,0.0,0.0,86,0.00,,,0.00,,2013-04-10 10:33:00,
2013-04-10 05:42:00,66.0,62.0,29.89,SSW,197,0.0,0.0,86,0.00,,,0.00,,2013-04-10 10:42:00,
2013-04-10 05:52:00,67.0,62.0,29.89,South,185,0.0,0.0,85,0.00,,,0.00,,2013-04-10 10:52:00,
2013-04-10 06:02:00,67.0,62.0,29.88,SSE,166,0.0,0.0,85,0.00,,,0.00,,2013-04-10 11:02:00,
2013-04-10 06:12:00,67.0,62.0,29.88,SSE,166,0.0,0.0,85,0.00,,,0.00,,2013-04-10 11:12:00,
2013-04-10 06:22:00,68.0,63.0,29.88,South,183,1.0,5.0,84,0.00,,,0.00,,2013-04-10 11:22:00,
2013-04-10 06:32:00,68.0,63.0,29.89,South,186,0.0,0.0,84,0.00,,,0.00,,2013-04-10 11:32:00,
2013-04-10 06:42:00,68.0,63.0,29.89,South,186,0.0,0.0,84,0.00,,,0.00,,2013-04-10 11:42:00,
2013-04-10 06:53:00,67.0,62.0,29.89,South,182,0.0,0.0,85,0.00,,,0.00,,2013-04-10 11:53:00,
2013-04-10 07:03:00,68.0,63.0,29.89,SSW,203,0.0,0.0,85,0.00,,,0.00,,2013-04-10 12:03:00,
2013-04-10 07:12:00,68.0,63.0,29.89,SSW,203,0.0,0.0,85,0.00,,,0.00,,2013-04-10 12:12:00,
2013-04-10 07:22:00,68.0,63.0,29.90,South,175,0.0,5.0,85,0.00,,,0.00,,2013-04-10 12:22:00,
2013-04-10 07:33:00,68.0,63.0,29.91,South,178,0.0,0.0,84,0.00,,,0.00,,2013-04-10 12:33:00,
2013-04-10 07:42:00,68.0,63.0,29.91,South,178,0.0,0.0,84,0.00,,,0.00,,2013-04-10 12:42:00,
2013-04-10 07:52:00,68.0,63.0,29.92,South,182,0.0,0.0,85,0.00,,,0.00,,2013-04-10 12:52:00,
2013-04-10 08:02:00,69.0,64.0,29.92,South,174,0.0,0.0,85,0.00,,,0.00,,2013-04-10 13:02:00,
2013-04-10 08:12:00,69.0,64.0,29.92,South,174,0.0,0.0,85,0.00,,,0.00,,2013-04-10 13:12:00,
2013-04-10 08:23:00,69.0,64.0,29.92,SSW,196,0.0,4.0,84,0.00,,,0.00,,2013-04-10 13:23:00,
2013-04-10 08:32:00,70.0,64.0,29.91,SSE,161,0.0,9.0,82,0.00,,,0.00,,2013-04-10 13:32:00,
2013-04-10 08:43:00,70.0,64.0,29.91,SSE,161,0.0,9.0,82,0.00,,,0.00,,2013-04-10 13:43:00,
2013-04-10 08:53:00,71.0,65.0,29.91,South,181,0.0,0.0,81,0.00,,,0.00,,2013-04-10 13:53:00,
2013-04-10 09:02:00,71.0,65.0,29.90,South,183,6.0,12.0,80,0.00,,,0.00,,2013-04-10 14:02:00,
2013-04-10 09:12:00,71.0,65.0,29.90,South,183,6.0,12.0,80,0.00,,,0.00,,2013-04-10 14:12:00,
2013-04-10 09:22:00,73.0,65.0,29.90,South,171,6.0,13.0,77,0.00,,,0.00,,2013-04-10 14:22:00,
2013-04-10 09:32:00,73.0,65.0,29.90,SSW,197,9.0,14.0,75,0.00,,,0.00,,2013-04-10 14:32:00,
2013-04-10 09:42:00,73.0,65.0,29.90,SSW,197,9.0,14.0,75,0.00,,,0.00,,2013-04-10 14:42:00,
2013-04-10 09:52:00,74.0,66.0,29.91,SSE,157,8.0,21.0,75,0.00,,,0.00,,2013-04-10 14:52:00,
2013-04-10 10:02:00,74.0,66.0,29.91,SSW,205,8.0,17.0,75,0.00,,,0.00,,2013-04-10 15:02:00,
2013-04-10 10:12:00,74.0,66.0,29.91,SSW,205,8.0,17.0,75,0.00,,,0.00,,2013-04-10 15:12:00,
2013-04-10 10:22:00,75.0,66.0,29.91,SSW,205,11.0,19.0,74,0.00,,,0.00,,2013-04-10 15:22:00,
2013-04-10 10:32:00,75.0,66.0,29.90,SSE,163,12.0,20.0,73,0.00,,,0.00,,2013-04-10 15:32:00,
2013-04-10 10:42:00,75.0,66.0,29.90,SSE,163,12.0,20.0,73,0.00,,,0.00,,2013-04-10 15:42:00,
2013-04-10 10:52:00,75.0,66.0,29.90,SSE,168,11.0,21.0,73,0.00,,,0.00,,2013-04-10 15:52:00,
2013-04-10 11:03:00,76.0,66.0,29.91,South,183,16.0,25.0,72,0.00,,,0.00,,2013-04-10 16:03:00,
2013-04-10 11:13:00,76.0,66.0,29.91,South,183,16.0,25.0,72,0.00,,,0.00,,2013-04-10 16:13:00,
2013-04-10 11:23:00,76.0,66.0,29.91,SSW,192,12.0,21.0,72,0.00,,,0.00,,2013-04-10 16:23:00,
2013-04-10 11:33:00,76.0,66.0,29.90,SSW,198,13.0,22.0,71,0.00,,,0.00,,2013-04-10 16:33:00,
2013-04-10 11:43:00,76.0,66.0,29.90,SSW,198,13.0,22.0,71,0.00,,,0.00,,2013-04-10 16:43:00,
2013-04-10 11:53:00,77.0,66.0,29.90,SSW,195,16.0,23.0,70,0.00,,,0.00,,2013-04-10 16:53:00,
2013-04-10 12:02:00,78.0,66.0,29.89,South,184,16.0,25.0,67,0.00,,,0.00,,2013-04-10 17:02:00,
2013-04-10 12:12:00,78.0,66.0,29.89,SSW,213,12.0,24.0,67,0.00,,,0.00,,2013-04-10 17:12:00,
2013-04-10 12:22:00,78.0,66.0,29.89,SSW,213,12.0,24.0,67,0.00,,,0.00,,2013-04-10 17:22:00,
2013-04-10 12:33:00,78.0,66.0,29.89,SSW,209,13.0,22.0,66,0.00,,,0.00,,2013-04-10 17:33:00,
2013-04-10 12:43:00,78.0,66.0,29.89,SSW,209,13.0,22.0,66,0.00,,,0.00,,2013-04-10 17:43:00,
2013-04-10 12:52:00,78.0,66.0,29.88,SSE,163,14.0,23.0,66,0.00,,,0.00,,2013-04-10 17:52:00,
2013-04-10 13:02:00,79.0,66.0,29.88,SSW,192,11.0,19.0,65,0.00,,,0.00,,2013-04-10 18:02:00,
2013-04-10 13:12:00,79.0,66.0,29.88,SSW,192,11.0,19.0,65,0.00,,,0.00,,2013-04-10 18:12:00,
2013-04-10 13:23:00,80.0,66.0,29.87,SSW,209,14.0,20.0,62,0.00,,,0.00,,2013-04-10 18:23:00,
2013-04-10 13:33:00,81.0,66.0,29.86,ESE,117,13.0,20.0,60,0.00,,,0.00,,2013-04-10 18:33:00,
2013-04-10 13:42:00,81.0,66.0,29.86,ESE,117,13.0,20.0,60,0.00,,,0.00,,2013-04-10 18:42:00,
2013-04-10 13:52:00,79.0,65.0,29.87,SSW,196,12.0,22.0,62,0.00,,,0.00,,2013-04-10 18:52:00,
2013-04-10 14:03:00,78.0,65.0,29.86,SW,225,8.0,14.0,65,0.00,,,0.00,,2013-04-10 19:03:00,
2013-04-10 14:12:00,78.0,65.0,29.86,SW,225,8.0,14.0,65,0.00,,,0.00,,2013-04-10 19:12:00,
2013-04-10 14:22:00,76.0,66.0,29.86,SSW,210,5.0,17.0,71,0.00,,,0.00,,2013-04-10 19:22:00,
2013-04-10 14:33:00,76.0,66.0,29.85,SW,235,0.0,7.0,72,0.00,,,0.00,,2013-04-10 19:33:00,
2013-04-10 14:42:00,76.0,66.0,29.85,SW,235,0.0,7.0,72,0.00,,,0.00,,2013-04-10 19:42:00,
2013-04-10 14:53:00,78.0,67.0,29.84,SSW,205,0.0,0.0,69,0.00,,,0.00,,2013-04-10 19:53:00,
2013-04-10 15:02:00,79.0,66.0,29.83,SSW,213,10.0,15.0,64,0.01,,,0.01,,2013-04-10 20:02:00,
2013-04-10 15:12:00,80.0,66.0,29.83,South,191,11.0,19.0,63,0.01,,,0.01,,2013-04-10 20:12:00,
2013-04-10 15:23:00,80.0,66.0,29.83,South,191,11.0,19.0,63,0.01,,,0.01,,2013-04-10 20:23:00,
2013-04-10 15:33:00,81.0,66.0,29.82,SSW,202,10.0,21.0,60,0.01,,,0.01,,2013-04-10 20:33:00,
2013-04-10 15:42:00,80.0,65.0,29.81,SW,225,11.0,17.0,60,0.01,,,0.01,,2013-04-10 20:42:00,
2013-04-10 15:52:00,80.0,65.0,29.81,SW,225,11.0,17.0,60,0.01,,,0.01,,2013-04-10 20:52:00,
2013-04-10 16:02:00,80.0,65.0,29.80,SSW,205,7.0,16.0,61,0.00,,,0.01,,2013-04-10 21:02:00,
2013-04-10 16:12:00,80.0,65.0,29.80,SSW,205,7.0,16.0,61,0.00,,,0.01,,2013-04-10 21:12:00,
2013-04-10 16:22:00,80.0,64.0,29.80,SSW,197,7.0,13.0,59,0.00,,,0.01,,2013-04-10 21:22:00,
2013-04-10 16:33:00,79.0,64.0,29.80,SSW,198,10.0,17.0,60,0.00,,,0.01,,2013-04-10 21:33:00,
2013-04-10 16:42:00,79.0,64.0,29.80,SSW,198,10.0,17.0,60,0.00,,,0.01,,2013-04-10 21:42:00,
2013-04-10 16:53:00,79.0,64.0,29.78,SSE,157,0.0,13.0,60,0.00,,,0.01,,2013-04-10 21:53:00,
2013-04-10 17:03:00,79.0,64.0,29.78,SSW,196,2.0,13.0,60,0.00,,,0.01,,2013-04-10 22:03:00,
2013-04-10 17:12:00,79.0,64.0,29.78,SSW,196,2.0,13.0,60,0.00,,,0.01,,2013-04-10 22:12:00,
2013-04-10 17:23:00,79.0,64.0,29.77,South,180,6.0,13.0,60,0.00,,,0.01,,2013-04-10 22:23:00,
2013-04-10 17:33:00,78.0,64.0,29.76,South,182,3.0,9.0,62,0.00,,,0.01,,2013-04-10 22:33:00,
2013-04-10 17:42:00,78.0,64.0,29.76,South,182,3.0,9.0,62,0.00,,,0.01,,2013-04-10 22:42:00,
2013-04-10 17:53:00,79.0,64.0,29.75,South,190,0.0,12.0,61,0.00,,,0.01,,2013-04-10 22:53:00,
2013-04-10 18:02:00,79.0,65.0,29.75,SSE,163,0.0,0.0,62,0.00,,,0.01,,2013-04-10 23:02:00,
2013-04-10 18:12:00,79.0,65.0,29.75,SSE,163,0.0,0.0,62,0.00,,,0.01,,2013-04-10 23:12:00,
2013-04-10 18:22:00,80.0,64.0,29.74,SSE,163,7.0,14.0,58,0.00,,,0.01,,2013-04-10 23:22:00,
2013-04-10 18:33:00,79.0,63.0,29.73,SSE,148,4.0,13.0,59,0.00,,,0.01,,2013-04-10 23:33:00,
2013-04-10 18:42:00,79.0,63.0,29.73,SSE,148,4.0,13.0,59,0.00,,,0.01,,2013-04-10 23:42:00,
2013-04-10 18:53:00,78.0,62.0,29.72,SSE,159,5.0,11.0,59,0.00,,,0.01,,2013-04-10 23:53:00,
2013-04-10 19:02:00,78.0,63.0,29.72,SSW,200,1.0,13.0,60,0.00,,,0.01,,2013-04-11 00:02:00,
2013-04-10 19:12:00,78.0,63.0,29.72,SSW,200,1.0,13.0,60,0.00,,,0.01,,2013-04-11 00:12:00,
2013-04-10 19:22:00,77.0,63.0,29.72,South,184,0.0,1.0,62,0.00,,,0.01,,2013-04-11 00:22:00,
2013-04-10 19:32:00,76.0,62.0,29.72,South,171,0.0,0.0,62,0.00,,,0.01,,2013-04-11 00:32:00,
2013-04-10 19:42:00,76.0,62.0,29.72,South,171,0.0,0.0,62,0.00,,,0.01,,2013-04-11 00:42:00,
2013-04-10 19:53:00,76.0,62.0,29.71,SE,135,0.0,6.0,63,0.00,,,0.01,,2013-04-11 00:53:00,
2013-04-10 20:02:00,76.0,62.0,29.70,SSE,157,0.0,0.0,63,0.00,,,0.01,,2013-04-11 01:02:00,
2013-04-10 20:12:00,76.0,62.0,29.70,SSE,157,0.0,0.0,63,0.00,,,0.01,,2013-04-11 01:12:00,
2013-04-10 20:22:00,76.0,62.0,29.71,South,187,0.0,4.0,62,0.00,,,0.01,,2013-04-11 01:22:00,
2013-04-10 20:32:00,76.0,62.0,29.71,SE,130,0.0,9.0,62,0.00,,,0.01,,2013-04-11 01:32:00,
2013-04-10 20:42:00,76.0,62.0,29.71,SE,130,0.0,9.0,62,0.00,,,0.01,,2013-04-11 01:42:00,
2013-04-10 20:52:00,76.0,62.0,29.71,SSE,165,0.0,5.0,62,0.00,,,0.01,,2013-04-11 01:52:00,
2013-04-10 21:03:00,75.0,62.0,29.71,South,169,0.0,0.0,63,0.00,,,0.01,,2013-04-11 02:03:00,
2013-04-10 21:12:00,74.0,61.0,29.71,SSE,157,0.0,0.0,65,0.00,,,0.01,,2013-04-11 02:12:00,
2013-04-10 21:22:00,74.0,61.0,29.71,SSE,157,0.0,0.0,65,0.00,,,0.01,,2013-04-11 02:22:00,
2013-04-10 21:32:00,74.0,62.0,29.72,South,184,0.0,0.0,66,0.00,,,0.01,,2013-04-11 02:32:00,
2013-04-10 21:42:00,74.0,62.0,29.72,South,184,0.0,0.0,66,0.00,,,0.01,,2013-04-11 02:42:00,
2013-04-10 21:53:00,74.0,62.0,29.72,SSE,156,0.0,0.0,66,0.00,,,0.01,,2013-04-11 02:53:00,
2013-04-10 22:02:00,74.0,61.0,29.73,South,172,0.0,4.0,65,0.00,,,0.01,,2013-04-11 03:02:00,
2013-04-10 22:12:00,74.0,61.0,29.73,South,172,0.0,4.0,65,0.00,,,0.01,,2013-04-11 03:12:00,
2013-04-10 22:22:00,74.0,61.0,29.72,South,181,0.0,9.0,64,0.00,,,0.01,,2013-04-11 03:22:00,
2013-04-10 22:33:00,74.0,61.0,29.71,South,172,0.0,7.0,63,0.00,,,0.01,,2013-04-11 03:33:00,
2013-04-10 22:43:00,74.0,61.0,29.72,SE,138,0.0,2.0,63,0.00,,,0.01,,2013-04-11 03:43:00,
2013-04-10 22:53:00,74.0,61.0,29.72,SE,138,0.0,2.0,63,0.00,,,0.01,,2013-04-11 03:53:00,
2013-04-10 23:03:00,73.0,61.0,29.72,South,177,0.0,0.0,66,0.00,,,0.01,,2013-04-11 04:03:00,
2013-04-10 23:13:00,72.0,62.0,29.72,SSW,198,0.0,0.0,71,0.00,,,0.01,,2013-04-11 04:13:00,
2013-04-10 23:22:00,72.0,62.0,29.72,SSW,198,0.0,0.0,71,0.00,,,0.01,,2013-04-11 04:22:00,
2013-04-10 23:33:00,70.0,62.0,29.72,SSW,198,0.0,0.0,75,0.00,,,0.01,,2013-04-11 04:33:00,
2013-04-10 23:42:00,70.0,62.0,29.72,SSW,198,0.0,0.0,75,0.00,,,0.01,,2013-04-11 04:42:00,
2013-04-10 23:53:00,69.0,61.0,29.73,SSW,198,0.0,0.0,77,0.00,,,0.01,,2013-04-11 04:53:00,